Weather History for EGPF - May, 2013

Change the Weather History Date:

Sunday, May 26, 2013

  Actual Average Record
Temperature  
Mean Temperature 52 °F -  
Max Temperature 60 °F 60 °F 73 °F (2012)
Min Temperature 44 °F 46 °F 39 °F (2000)
Degree Days  
Heating Degree Days 13    
Growing Degree Days 2 (Base 50)    
Moisture  
Dew Point 44 °F    
Average Humidity 73    
Maximum Humidity 88    
Minimum Humidity 54    
Precipitation  
Precipitation 0.00 in - - ()
Sea Level Pressure  
Sea Level Pressure 29.99 in    
Wind  
Wind Speed 6 mph ()    
Max Wind Speed 17 mph    
Max Gust Speed -    
Visibility 6.2 miles    
Events Rain    
Averages and records for this station are not official NWS values.
T = Trace of Precipitation, MM = Missing Value Source: Averaged Metar Reports

Daily Weather History Graph

Daily Weather History Graph

Search for Another Location

Airport or City:

Trip Planner

Search our weather history database for the weather conditions in past years. The results will help you decide how hot, cold, wet, or windy it might be!

Date:

Astronomy

May. 26, 2013 Rise Set
Actual Time 4:47 AM BST 9:42 PM BST
Civil Twilight 3:53 AM BST 10:37 PM BST
Nautical Twilight 2:13 AM BST 12:20 AM BST
Astronomical Twilight Sun does not set Sun does not set
Moon 11:11 PM BST (5/26) 6:05 AM BST (5/26)
Length of Visible Light 18h 44m
Length of Day
16h 55m
Full, 97% of the Moon is Illuminated
May 26
Full
May 31
Last Quarter
Jun 8
New
Jun 16
First Quarter
Jun 23
Full

Hourly Weather History & Observations

Time (BST) Temp. Windchill Dew Point Humidity Pressure Visibility Wind Dir Wind Speed Gust Speed Precip Events Conditions
12:20 AM 46.4 °F 44.3 °F 39.2 °F 76% 30.12 in - West 4.6 mph - N/A   Clear
12:50 AM 44.6 °F 42.2 °F 37.4 °F 76% 30.12 in - West 4.6 mph - N/A   Clear
1:20 AM 44.6 °F 42.2 °F 39.2 °F 81% 30.12 in - WNW 4.6 mph - N/A   Clear
1:50 AM 44.6 °F 42.2 °F 39.2 °F 81% 30.12 in 6.2 mi West 4.6 mph - N/A   Unknown
2:20 AM 46.4 °F 45.2 °F 41.0 °F 81% 30.12 in 6.2 mi West 3.5 mph - N/A   Unknown
2:50 AM 46.4 °F 45.2 °F 41.0 °F 81% 30.12 in 6.2 mi WSW 3.5 mph - N/A   Mostly Cloudy
3:20 AM 46.4 °F 44.3 °F 41.0 °F 81% 30.09 in 6.2 mi WSW 4.6 mph - N/A   Mostly Cloudy
3:50 AM 46.4 °F - 41.0 °F 81% 30.09 in 6.2 mi Variable 2.3 mph - N/A   Scattered Clouds
4:20 AM 46.4 °F - 41.0 °F 81% 30.09 in 6.2 mi Variable 2.3 mph - N/A   Mostly Cloudy
4:50 AM 46.4 °F - 41.0 °F 81% 30.09 in 6.2 mi Calm Calm - N/A   Scattered Clouds
5:20 AM 46.4 °F - 41.0 °F 81% 30.09 in 6.2 mi West 2.3 mph - N/A   Scattered Clouds
5:50 AM 46.4 °F 45.2 °F 42.8 °F 87% 30.09 in 6.2 mi WNW 3.5 mph - N/A   Scattered Clouds
6:20 AM 46.4 °F - 42.8 °F 87% 30.09 in 6.2 mi WNW 2.3 mph - N/A   Mostly Cloudy
6:50 AM 48.2 °F - 42.8 °F 82% 30.09 in 6.2 mi Calm Calm - N/A   Mostly Cloudy
7:20 AM 50.0 °F - 42.8 °F 76% 30.09 in 6.2 mi NW 2.3 mph - N/A   Mostly Cloudy
7:50 AM 50.0 °F - 42.8 °F 76% 30.09 in 6.2 mi Calm Calm - N/A   Mostly Cloudy
8:20 AM 50.0 °F - 46.4 °F 87% 30.09 in 6.2 mi WSW 5.8 mph - N/A   Mostly Cloudy
8:50 AM 51.8 °F - 46.4 °F 82% 30.09 in 6.2 mi WSW 9.2 mph - N/A   Mostly Cloudy
9:20 AM 51.8 °F - 48.2 °F 88% 30.06 in 6.2 mi SW 9.2 mph - N/A   Mostly Cloudy
9:50 AM 53.6 °F - 48.2 °F 82% 30.06 in 6.2 mi WSW 8.1 mph - N/A   Mostly Cloudy
10:20 AM 53.6 °F - 48.2 °F 82% 30.06 in 6.2 mi SW 9.2 mph - N/A   Mostly Cloudy
10:50 AM 55.4 °F - 48.2 °F 77% 30.06 in 6.2 mi WSW 6.9 mph - N/A   Mostly Cloudy
11:20 AM 55.4 °F - 48.2 °F 77% 30.04 in 6.2 mi SSW 8.1 mph - N/A   Mostly Cloudy
11:50 AM 57.2 °F - 48.2 °F 72% 30.04 in 6.2 mi SW 9.2 mph - N/A   Mostly Cloudy
12:20 PM 57.2 °F - 48.2 °F 72% 30.04 in 6.2 mi WSW 10.4 mph - N/A   Mostly Cloudy
12:50 PM 57.2 °F - 48.2 °F 72% 30.01 in 6.2 mi WSW 10.4 mph - N/A   Mostly Cloudy
1:20 PM 59.0 °F - 48.2 °F 67% 30.01 in 6.2 mi WSW 9.2 mph - N/A   Mostly Cloudy
1:50 PM 59.0 °F - 46.4 °F 63% 30.01 in 6.2 mi SW 13.8 mph - N/A   Mostly Cloudy
2:20 PM 59.0 °F - 46.4 °F 63% 29.98 in 6.2 mi WSW 10.4 mph - N/A   Mostly Cloudy
2:50 PM 60.8 °F - 46.4 °F 59% 29.98 in 6.2 mi SW 11.5 mph - N/A   Scattered Clouds
3:20 PM 59.0 °F - 46.4 °F 63% 29.98 in 6.2 mi SW 12.7 mph - N/A   Mostly Cloudy
3:50 PM 60.8 °F - 48.2 °F 63% 29.95 in 6.2 mi SW 11.5 mph - N/A   Scattered Clouds
4:20 PM 60.8 °F - 48.2 °F 63% 29.95 in 6.2 mi SW 15.0 mph - N/A   Scattered Clouds
4:50 PM 59.0 °F - 46.4 °F 63% 29.95 in 6.2 mi SW 15.0 mph - N/A   Partly Cloudy
5:20 PM 59.0 °F - 46.4 °F 63% 29.92 in 6.2 mi SW 16.1 mph - N/A   Partly Cloudy
5:50 PM 57.2 °F - 46.4 °F 67% 29.89 in - SW 17.3 mph - N/A   Clear
6:20 PM 57.2 °F - 48.2 °F 72% 29.89 in - SW 15.0 mph - N/A   Clear
6:50 PM 57.2 °F - 48.2 °F 72% 29.89 in - SW 13.8 mph - N/A   Clear
7:20 PM 55.4 °F - 46.4 °F 72% 29.86 in - SW 9.2 mph - N/A   Clear
7:50 PM 55.4 °F - 48.2 °F 77% 29.86 in - WSW 8.1 mph - N/A   Clear
8:20 PM 53.6 °F - 46.4 °F 77% 29.83 in - SW 6.9 mph - N/A   Clear
8:50 PM 55.4 °F - 39.2 °F 54% 29.83 in - SSW 11.5 mph - N/A   Clear
9:20 PM 53.6 °F - 37.4 °F 54% 29.80 in - South 10.4 mph - N/A   Clear
9:50 PM 53.6 °F - 39.2 °F 58% 29.80 in - South 12.7 mph - N/A   Clear
10:20 PM 53.6 °F - 42.8 °F 67% 29.80 in - South 13.8 mph - N/A   Clear
10:50 PM 53.6 °F - 42.8 °F 67% 29.77 in 6.2 mi South 12.7 mph - N/A   Scattered Clouds
11:20 PM 53.6 °F - 42.8 °F 67% 29.77 in 6.2 mi South 13.8 mph - N/A   Scattered Clouds
11:50 PM 51.8 °F - 44.6 °F 76% 29.74 in 6.2 mi South 11.5 mph - N/A Rain Light Rain